sat.trackr.live / text

‹ back to catalog

STARLINK-32277

NORAD 60376 · 2024-138X

PAYLOAD ACTIVE UNKNOWN

§ Identity

Operator
Country
US
Launch date
2024-08-04
Launch site
AFWTR
Launch vehicle
Mass (kg)
RCS (m²)

Purposes: comms

External: N2YO · Heavens-Above · Gunter

§ Orbital elements

Epoch: 2026-05-25T03:54:41.198976Z

Period
94.11 min
Inclination
53.1629°
Eccentricity
0.0001157
Mean motion
15.30194487 rev/d
Perigee alt
474.4 km
Apogee alt
476.0 km
Semi-major
6,853.4 km
B*
6.1018e-5
RAAN
314.5600°
Arg perigee
93.0552°
Mean anomaly
267.0581°
Rev number
10,233

§ Raw data

STARLINK-322771 60376U 24138X   26145.16297684  .00001448  00000+0  61018-4 0  99972 60376  53.1629 314.5600 0001157  93.0552 267.0581 15.30194487102337

JSON: /api/v1/satellites/60376 · /tle

For live sub-satellite position, see the globe view (requires WebGL).

§ Visibility from observer

Set your observer location to see the next 7 days of passes ≥ 10°. The values pass through the URL so the page stays shareable.

No JS? Fill the form by hand. The geolocation button needs JavaScript.